Year,Month,Day,Hour,Minute,Value (Times are PST for temperature in C)
2020,04,18,00,00,10.70
2020,04,18,00,01,10.70
2020,04,18,00,02,10.70
2020,04,18,00,03,10.70
2020,04,18,00,04,10.70
2020,04,18,00,05,10.70
2020,04,18,00,06,10.60
2020,04,18,00,07,10.60
2020,04,18,00,08,10.60
2020,04,18,00,09,10.60
2020,04,18,00,10,10.60
2020,04,18,00,11,10.60
2020,04,18,00,12,10.60
2020,04,18,00,13,10.60
2020,04,18,00,14,10.60
2020,04,18,00,15,10.50
2020,04,18,00,16,10.50
2020,04,18,00,17,10.50
2020,04,18,00,18,10.40
2020,04,18,00,19,10.40
2020,04,18,00,20,10.40
2020,04,18,00,21,10.40
2020,04,18,00,22,10.40
2020,04,18,00,23,10.30
2020,04,18,00,24,10.30
2020,04,18,00,25,10.20
2020,04,18,00,26,10.20
2020,04,18,00,27,10.20
2020,04,18,00,28,10.10
2020,04,18,00,29,10.10
2020,04,18,00,30,10.00
2020,04,18,00,31,10.00
2020,04,18,00,32,9.90
2020,04,18,00,33,9.90
2020,04,18,00,34,9.80
2020,04,18,00,35,9.80
2020,04,18,00,36,9.70
2020,04,18,00,37,9.70
2020,04,18,00,38,9.60
2020,04,18,00,39,9.60
2020,04,18,00,40,9.50
2020,04,18,00,41,9.50
2020,04,18,00,42,9.40
2020,04,18,00,43,9.40
2020,04,18,00,44,9.30
2020,04,18,00,45,9.40
2020,04,18,00,46,9.40
2020,04,18,00,47,9.40
2020,04,18,00,48,9.40
2020,04,18,00,49,9.50
2020,04,18,00,50,9.50
2020,04,18,00,51,9.50
2020,04,18,00,52,9.50
2020,04,18,00,53,9.60
2020,04,18,00,54,9.60
2020,04,18,00,55,9.60
2020,04,18,00,56,9.60
2020,04,18,00,57,9.60
2020,04,18,00,58,9.60
2020,04,18,00,59,9.70
2020,04,18,01,00,9.70
2020,04,18,01,01,9.70
2020,04,18,01,02,9.70
2020,04,18,01,03,9.70
2020,04,18,01,04,9.70
2020,04,18,01,05,9.70
2020,04,18,01,06,9.70
2020,04,18,01,07,9.70
2020,04,18,01,08,9.70
2020,04,18,01,09,9.70
2020,04,18,01,10,9.70
2020,04,18,01,11,9.70
2020,04,18,01,12,9.60
2020,04,18,01,13,9.60
2020,04,18,01,14,9.60
2020,04,18,01,15,9.60
2020,04,18,01,16,9.50
2020,04,18,01,17,9.50
2020,04,18,01,18,9.40
2020,04,18,01,19,9.40
2020,04,18,01,20,9.30
2020,04,18,01,21,9.30
2020,04,18,01,22,9.30
2020,04,18,01,23,9.20
2020,04,18,01,24,9.20
2020,04,18,01,25,9.10
2020,04,18,01,26,9.00
2020,04,18,01,27,9.00
2020,04,18,01,28,8.90
2020,04,18,01,29,8.90
2020,04,18,01,30,8.90
2020,04,18,01,31,8.90
2020,04,18,01,32,8.80
2020,04,18,01,33,8.80
2020,04,18,01,34,8.80
2020,04,18,01,35,8.80
2020,04,18,01,36,8.70
2020,04,18,01,37,8.70
2020,04,18,01,38,8.70
2020,04,18,01,39,8.60
2020,04,18,01,40,8.60
2020,04,18,01,41,8.50
2020,04,18,01,42,8.50
2020,04,18,01,43,8.50
2020,04,18,01,44,8.40
2020,04,18,01,45,8.40
2020,04,18,01,46,8.40
2020,04,18,01,47,8.30
2020,04,18,01,48,8.30
2020,04,18,01,49,8.30
2020,04,18,01,50,8.20
2020,04,18,01,51,8.20
2020,04,18,01,52,8.20
2020,04,18,01,53,8.10
2020,04,18,01,54,8.10
2020,04,18,01,55,8.10
2020,04,18,01,56,8.00
2020,04,18,01,57,8.00
2020,04,18,01,58,7.90
2020,04,18,01,59,7.90
2020,04,18,02,00,7.90
2020,04,18,02,01,7.80
2020,04,18,02,02,7.80
2020,04,18,02,03,7.70
2020,04,18,02,04,7.70
2020,04,18,02,05,7.70
2020,04,18,02,06,7.60
2020,04,18,02,07,7.60
2020,04,18,02,08,7.60
2020,04,18,02,09,7.50
2020,04,18,02,10,7.50
2020,04,18,02,11,7.40
2020,04,18,02,12,7.40
2020,04,18,02,13,7.40
2020,04,18,02,14,7.40
2020,04,18,02,15,7.40
2020,04,18,02,16,7.30
2020,04,18,02,17,7.30
2020,04,18,02,18,7.30
2020,04,18,02,19,7.30
2020,04,18,02,20,7.20
2020,04,18,02,21,7.20
2020,04,18,02,22,7.20
2020,04,18,02,23,7.10
2020,04,18,02,24,7.10
2020,04,18,02,25,7.10
2020,04,18,02,26,7.00
2020,04,18,02,27,7.00
2020,04,18,02,28,7.00
2020,04,18,02,29,6.90
2020,04,18,02,30,6.90
2020,04,18,02,31,6.90
2020,04,18,02,32,6.90
2020,04,18,02,33,6.90
2020,04,18,02,34,6.80
2020,04,18,02,35,6.80
2020,04,18,02,36,6.80
2020,04,18,02,37,6.80
2020,04,18,02,38,6.80
2020,04,18,02,39,6.80
2020,04,18,02,40,6.80
2020,04,18,02,41,6.80
2020,04,18,02,42,6.70
2020,04,18,02,43,6.70
2020,04,18,02,44,6.70
2020,04,18,02,45,6.70
2020,04,18,02,46,6.70
2020,04,18,02,47,6.70
2020,04,18,02,48,6.60
2020,04,18,02,49,6.60
2020,04,18,02,50,6.60
2020,04,18,02,51,6.60
2020,04,18,02,52,6.60
2020,04,18,02,53,6.60
2020,04,18,02,54,6.60
2020,04,18,02,55,6.50
2020,04,18,02,56,6.50
2020,04,18,02,57,6.50
2020,04,18,02,58,6.40
2020,04,18,02,59,6.40
2020,04,18,03,00,6.40
2020,04,18,03,01,6.40
2020,04,18,03,02,6.40
2020,04,18,03,03,6.30
2020,04,18,03,04,6.30
2020,04,18,03,05,6.30
2020,04,18,03,06,6.30
2020,04,18,03,07,6.30
2020,04,18,03,08,6.30
2020,04,18,03,09,6.20
2020,04,18,03,10,6.20
2020,04,18,03,11,6.20
2020,04,18,03,12,6.20
2020,04,18,03,13,6.20
2020,04,18,03,14,6.10
2020,04,18,03,15,6.10
2020,04,18,03,16,6.10
2020,04,18,03,17,6.10
2020,04,18,03,18,6.10
2020,04,18,03,19,6.10
2020,04,18,03,20,6.00
2020,04,18,03,21,6.00
2020,04,18,03,22,6.00
2020,04,18,03,23,6.00
2020,04,18,03,24,5.90
2020,04,18,03,25,5.90
2020,04,18,03,26,5.90
2020,04,18,03,27,5.90
2020,04,18,03,28,5.80
2020,04,18,03,29,5.80
2020,04,18,03,30,5.80
2020,04,18,03,31,5.80
2020,04,18,03,32,5.80
2020,04,18,03,33,5.80
2020,04,18,03,34,5.80
2020,04,18,03,35,5.70
2020,04,18,03,36,5.70
2020,04,18,03,37,5.70
2020,04,18,03,38,5.70
2020,04,18,03,39,5.70
2020,04,18,03,40,5.70
2020,04,18,03,41,5.70
2020,04,18,03,42,5.70
2020,04,18,03,43,5.70
2020,04,18,03,44,5.60
2020,04,18,03,45,5.60
2020,04,18,03,46,5.60
2020,04,18,03,47,5.60
2020,04,18,03,48,5.60
2020,04,18,03,49,5.50
2020,04,18,03,50,5.50
2020,04,18,03,51,5.50
2020,04,18,03,52,5.50
2020,04,18,03,53,5.40
2020,04,18,03,54,5.40
2020,04,18,03,55,5.40
2020,04,18,03,56,5.40
2020,04,18,03,57,5.30
2020,04,18,03,58,5.30
2020,04,18,03,59,5.30
2020,04,18,04,00,5.30
2020,04,18,04,01,5.30
2020,04,18,04,02,5.30
2020,04,18,04,03,5.20
2020,04,18,04,04,5.20
2020,04,18,04,05,5.20
2020,04,18,04,06,5.20
2020,04,18,04,07,5.20
2020,04,18,04,08,5.20
2020,04,18,04,09,5.20
2020,04,18,04,10,5.20
2020,04,18,04,11,5.20
2020,04,18,04,12,5.10
2020,04,18,04,13,5.10
2020,04,18,04,14,5.10
2020,04,18,04,15,5.10
2020,04,18,04,16,5.10
2020,04,18,04,17,5.10
2020,04,18,04,18,5.00
2020,04,18,04,19,5.00
2020,04,18,04,20,5.00
2020,04,18,04,21,5.00
2020,04,18,04,22,4.90
2020,04,18,04,23,4.90
2020,04,18,04,24,4.90
2020,04,18,04,25,4.90
2020,04,18,04,26,4.90
2020,04,18,04,27,4.90
2020,04,18,04,28,4.90
2020,04,18,04,29,4.80
2020,04,18,04,30,4.80
2020,04,18,04,31,4.80
2020,04,18,04,32,4.80
2020,04,18,04,33,4.80
2020,04,18,04,34,4.80
2020,04,18,04,35,4.80
2020,04,18,04,36,4.80
2020,04,18,04,37,4.70
2020,04,18,04,38,4.70
2020,04,18,04,39,4.70
2020,04,18,04,40,4.70
2020,04,18,04,41,4.70
2020,04,18,04,42,4.70
2020,04,18,04,43,4.70
2020,04,18,04,44,4.70
2020,04,18,04,45,4.70
2020,04,18,04,46,4.70
2020,04,18,04,47,4.70
2020,04,18,04,48,4.70
2020,04,18,04,49,4.70
2020,04,18,04,50,4.60
2020,04,18,04,51,4.60
2020,04,18,04,52,4.60
2020,04,18,04,53,4.60
2020,04,18,04,54,4.60
2020,04,18,04,55,4.60
2020,04,18,04,56,4.60
2020,04,18,04,57,4.60
2020,04,18,04,58,4.60
2020,04,18,04,59,4.60
2020,04,18,05,00,4.60
2020,04,18,05,01,4.60
2020,04,18,05,02,4.50
2020,04,18,05,03,4.50
2020,04,18,05,04,4.50
2020,04,18,05,05,4.50
2020,04,18,05,06,4.50
2020,04,18,05,07,4.40
2020,04,18,05,08,4.50
2020,04,18,05,09,4.40
2020,04,18,05,10,4.40
2020,04,18,05,11,4.40
2020,04,18,05,12,4.40
2020,04,18,05,13,4.40
2020,04,18,05,14,4.30
2020,04,18,05,15,4.30
2020,04,18,05,16,4.30
2020,04,18,05,17,4.30
2020,04,18,05,18,4.30
2020,04,18,05,19,4.30
2020,04,18,05,20,4.30
2020,04,18,05,21,4.20
2020,04,18,05,22,4.20
2020,04,18,05,23,4.20
2020,04,18,05,24,4.20
2020,04,18,05,25,4.20
2020,04,18,05,26,4.20
2020,04,18,05,27,4.20
2020,04,18,05,28,4.20
2020,04,18,05,29,4.20
2020,04,18,05,30,4.10
2020,04,18,05,31,4.10
2020,04,18,05,32,4.10
2020,04,18,05,33,4.10
2020,04,18,05,34,4.10
2020,04,18,05,35,4.10
2020,04,18,05,36,4.10
2020,04,18,05,37,4.10
2020,04,18,05,38,4.10
2020,04,18,05,39,4.10
2020,04,18,05,40,4.10
2020,04,18,05,41,4.00
2020,04,18,05,42,4.00
2020,04,18,05,43,4.00
2020,04,18,05,44,4.00
2020,04,18,05,45,3.90
2020,04,18,05,46,3.90
2020,04,18,05,47,3.90
2020,04,18,05,48,3.90
2020,04,18,05,49,3.90
2020,04,18,05,50,3.90
2020,04,18,05,51,3.90
2020,04,18,05,52,3.90
2020,04,18,05,53,3.90
2020,04,18,05,54,3.90
2020,04,18,05,55,3.90
2020,04,18,05,56,3.90
2020,04,18,05,57,3.90
2020,04,18,05,58,3.90
2020,04,18,05,59,3.90
2020,04,18,06,00,3.80
2020,04,18,06,01,3.80
2020,04,18,06,02,3.80
2020,04,18,06,03,3.80
2020,04,18,06,04,3.80
2020,04,18,06,05,3.80
2020,04,18,06,06,3.80
2020,04,18,06,07,3.80
2020,04,18,06,08,3.80
2020,04,18,06,09,3.80
2020,04,18,06,10,3.70
2020,04,18,06,11,3.70
2020,04,18,06,12,3.70
2020,04,18,06,13,3.70
2020,04,18,06,14,3.70
2020,04,18,06,15,3.70
2020,04,18,06,16,3.70
2020,04,18,06,17,3.60
2020,04,18,06,18,3.60
2020,04,18,06,19,3.60
2020,04,18,06,20,3.60
2020,04,18,06,21,3.60
2020,04,18,06,22,3.60
2020,04,18,06,23,3.60
2020,04,18,06,24,3.60
2020,04,18,06,25,3.60
2020,04,18,06,26,3.60
2020,04,18,06,27,3.50
2020,04,18,06,28,3.50
2020,04,18,06,29,3.50
2020,04,18,06,30,3.50
2020,04,18,06,31,3.50
2020,04,18,06,32,3.50
2020,04,18,06,33,3.50
2020,04,18,06,34,3.50
2020,04,18,06,35,3.50
2020,04,18,06,36,3.50
2020,04,18,06,37,3.50
2020,04,18,06,38,3.40
2020,04,18,06,39,3.40
2020,04,18,06,40,3.40
2020,04,18,06,41,3.40
2020,04,18,06,42,3.40
2020,04,18,06,43,3.40
2020,04,18,06,44,3.40
2020,04,18,06,45,3.40
2020,04,18,06,46,3.40
2020,04,18,06,47,3.40
2020,04,18,06,48,3.40
2020,04,18,06,49,3.40
2020,04,18,06,50,3.40
2020,04,18,06,51,3.40
2020,04,18,06,52,3.40
2020,04,18,06,53,3.40
2020,04,18,06,54,3.40
2020,04,18,06,55,3.30
2020,04,18,06,56,3.30
2020,04,18,06,57,3.30
2020,04,18,06,58,3.30
2020,04,18,06,59,3.30
2020,04,18,07,00,3.30
2020,04,18,07,01,3.30
2020,04,18,07,02,3.30
2020,04,18,07,03,3.30
2020,04,18,07,04,3.30
2020,04,18,07,05,3.30
2020,04,18,07,06,3.30
2020,04,18,07,07,3.30
2020,04,18,07,08,3.30
2020,04,18,07,09,3.30
2020,04,18,07,10,3.30
2020,04,18,07,11,3.30
2020,04,18,07,12,3.30
2020,04,18,07,13,3.30
2020,04,18,07,14,3.30
2020,04,18,07,15,3.30
2020,04,18,07,16,3.30
2020,04,18,07,17,3.30
2020,04,18,07,18,3.30
2020,04,18,07,19,3.30
2020,04,18,07,20,3.30
2020,04,18,07,21,3.30
2020,04,18,07,22,3.30
2020,04,18,07,23,3.30
2020,04,18,07,24,3.30
2020,04,18,07,25,3.30
2020,04,18,07,26,3.30
2020,04,18,07,27,3.30
2020,04,18,07,28,3.30
2020,04,18,07,29,3.30
2020,04,18,07,30,3.30
2020,04,18,07,31,3.30
2020,04,18,07,32,3.30
2020,04,18,07,33,3.30
2020,04,18,07,34,3.30
2020,04,18,07,35,3.30
2020,04,18,07,36,3.30
2020,04,18,07,37,3.30
2020,04,18,07,38,3.30
2020,04,18,07,39,3.30
2020,04,18,07,40,3.30
2020,04,18,07,41,3.30
2020,04,18,07,42,3.30
2020,04,18,07,43,3.30
2020,04,18,07,44,3.30
2020,04,18,07,45,3.30
2020,04,18,07,46,3.30
2020,04,18,07,47,3.30
2020,04,18,07,48,3.40
2020,04,18,07,49,3.40
2020,04,18,07,50,3.40
2020,04,18,07,51,3.40
2020,04,18,07,52,3.50
2020,04,18,07,53,3.50
2020,04,18,07,54,3.60
2020,04,18,07,55,3.70
2020,04,18,07,56,3.80
2020,04,18,07,57,3.90
2020,04,18,07,58,4.00
2020,04,18,07,59,4.10
2020,04,18,08,00,4.10
2020,04,18,08,01,4.20
2020,04,18,08,02,4.30
2020,04,18,08,03,4.30
2020,04,18,08,04,4.40
2020,04,18,08,05,4.50
2020,04,18,08,06,4.60
2020,04,18,08,07,4.70
2020,04,18,08,08,4.80
2020,04,18,08,09,4.90
2020,04,18,08,10,5.00
2020,04,18,08,11,5.00
2020,04,18,08,12,5.10
2020,04,18,08,13,5.10
2020,04,18,08,14,5.20
2020,04,18,08,15,5.20
2020,04,18,08,16,5.30
2020,04,18,08,17,5.40
2020,04,18,08,18,5.40
2020,04,18,08,19,5.40
2020,04,18,08,20,5.50
2020,04,18,08,21,5.60
2020,04,18,08,22,5.70
2020,04,18,08,23,5.80
2020,04,18,08,24,5.80
2020,04,18,08,25,5.90
2020,04,18,08,26,6.10
2020,04,18,08,27,6.20
2020,04,18,08,28,6.30
2020,04,18,08,29,6.30
2020,04,18,08,30,6.30
2020,04,18,08,31,6.40
2020,04,18,08,32,6.40
2020,04,18,08,33,6.50
2020,04,18,08,34,6.60
2020,04,18,08,35,6.60
2020,04,18,08,36,6.60
2020,04,18,08,37,6.70
2020,04,18,08,38,6.80
2020,04,18,08,39,6.90
2020,04,18,08,40,6.90
2020,04,18,08,41,7.00
2020,04,18,08,42,7.00
2020,04,18,08,43,7.10
2020,04,18,08,44,7.20
2020,04,18,08,45,7.20
2020,04,18,08,46,7.30
2020,04,18,08,47,7.40
2020,04,18,08,48,7.50
2020,04,18,08,49,7.50
2020,04,18,08,50,7.60
2020,04,18,08,51,7.70
2020,04,18,08,52,7.80
2020,04,18,08,53,7.90
2020,04,18,08,54,8.00
2020,04,18,08,55,8.10
2020,04,18,08,56,8.20
2020,04,18,08,57,8.20
2020,04,18,08,58,8.20
2020,04,18,08,59,8.30
2020,04,18,09,00,8.30
2020,04,18,09,01,8.30
2020,04,18,09,02,8.30
2020,04,18,09,03,8.30
2020,04,18,09,04,8.30
2020,04,18,09,05,8.30
2020,04,18,09,06,8.30
2020,04,18,09,07,8.40
2020,04,18,09,08,8.40
2020,04,18,09,09,8.40
2020,04,18,09,10,8.40
2020,04,18,09,11,8.40
2020,04,18,09,12,8.40
2020,04,18,09,13,8.50
2020,04,18,09,14,8.50
2020,04,18,09,15,8.50
2020,04,18,09,16,8.50
2020,04,18,09,17,8.60
2020,04,18,09,18,8.60
2020,04,18,09,19,8.60
2020,04,18,09,20,8.60
2020,04,18,09,21,8.70
2020,04,18,09,22,8.70
2020,04,18,09,23,8.70
2020,04,18,09,24,8.80
2020,04,18,09,25,8.80
2020,04,18,09,26,8.90
2020,04,18,09,27,9.00
2020,04,18,09,28,9.10
2020,04,18,09,29,9.10
2020,04,18,09,30,9.20
2020,04,18,09,31,9.30
2020,04,18,09,32,9.40
2020,04,18,09,33,9.50
2020,04,18,09,34,9.70
2020,04,18,09,35,9.80
2020,04,18,09,36,10.00
2020,04,18,09,37,10.00
2020,04,18,09,38,10.10
2020,04,18,09,39,10.10
2020,04,18,09,40,10.10
2020,04,18,09,41,10.10
2020,04,18,09,42,10.00
2020,04,18,09,43,10.00
2020,04,18,09,44,10.00
2020,04,18,09,45,10.10
2020,04,18,09,46,10.10
2020,04,18,09,47,10.20
2020,04,18,09,48,10.20
2020,04,18,09,49,10.30
2020,04,18,09,50,10.30
2020,04,18,09,51,10.40
2020,04,18,09,52,10.40
2020,04,18,09,53,10.50
2020,04,18,09,54,10.50
2020,04,18,09,55,10.50
2020,04,18,09,56,10.50
2020,04,18,09,57,10.50
2020,04,18,09,58,10.50
2020,04,18,09,59,10.50
2020,04,18,10,00,10.50
2020,04,18,10,01,10.50
2020,04,18,10,02,10.50
2020,04,18,10,03,10.50
2020,04,18,10,04,10.50
2020,04,18,10,05,10.60
2020,04,18,10,06,10.60
2020,04,18,10,07,10.70
2020,04,18,10,08,10.70
2020,04,18,10,09,10.80
2020,04,18,10,10,10.80
2020,04,18,10,11,10.80
2020,04,18,10,12,10.80
2020,04,18,10,13,10.80
2020,04,18,10,14,10.80
2020,04,18,10,15,10.80
2020,04,18,10,16,10.80
2020,04,18,10,17,10.80
2020,04,18,10,18,10.80
2020,04,18,10,19,10.90
2020,04,18,10,20,10.90
2020,04,18,10,21,10.90
2020,04,18,10,22,11.00
2020,04,18,10,23,11.10
2020,04,18,10,24,11.10
2020,04,18,10,25,11.20
2020,04,18,10,26,11.20
2020,04,18,10,27,11.20
2020,04,18,10,28,11.30
2020,04,18,10,29,11.30
2020,04,18,10,30,11.40
2020,04,18,10,31,11.40
2020,04,18,10,32,11.50
2020,04,18,10,33,11.60
2020,04,18,10,34,11.60
2020,04,18,10,35,11.70
2020,04,18,10,36,11.80
2020,04,18,10,37,11.80
2020,04,18,10,38,11.80
2020,04,18,10,39,11.80
2020,04,18,10,40,11.90
2020,04,18,10,41,11.90
2020,04,18,10,42,11.90
2020,04,18,10,43,12.00
2020,04,18,10,44,12.00
2020,04,18,10,45,12.00
2020,04,18,10,46,12.00
2020,04,18,10,47,12.10
2020,04,18,10,48,12.10
2020,04,18,10,49,12.10
2020,04,18,10,50,12.20
2020,04,18,10,51,12.30
2020,04,18,10,52,12.40
2020,04,18,10,53,12.50
2020,04,18,10,54,12.50
2020,04,18,10,55,12.60
2020,04,18,10,56,12.70
2020,04,18,10,57,12.90
2020,04,18,10,58,13.00
2020,04,18,10,59,13.10
2020,04,18,11,00,13.20
2020,04,18,11,01,13.20
2020,04,18,11,02,13.20
2020,04,18,11,03,13.20
2020,04,18,11,04,13.20
2020,04,18,11,05,13.20
2020,04,18,11,06,13.20
2020,04,18,11,07,13.20
2020,04,18,11,08,13.30
2020,04,18,11,09,13.40
2020,04,18,11,10,13.50
2020,04,18,11,11,13.60
2020,04,18,11,12,13.60
2020,04,18,11,13,13.70
2020,04,18,11,14,13.80
2020,04,18,11,15,13.90
2020,04,18,11,16,14.00
2020,04,18,11,17,14.20
2020,04,18,11,18,14.30
2020,04,18,11,19,14.30
2020,04,18,11,20,14.30
2020,04,18,11,21,14.30
2020,04,18,11,22,14.40
2020,04,18,11,23,14.50
2020,04,18,11,24,14.60
2020,04,18,11,25,14.60
2020,04,18,11,26,14.70
2020,04,18,11,27,14.70
2020,04,18,11,28,14.70
2020,04,18,11,29,14.70
2020,04,18,11,30,14.60
2020,04,18,11,31,14.60
2020,04,18,11,32,14.60
2020,04,18,11,33,14.60
2020,04,18,11,34,14.60
2020,04,18,11,35,14.60
2020,04,18,11,36,14.70
2020,04,18,11,37,14.70
2020,04,18,11,38,14.80
2020,04,18,11,39,14.80
2020,04,18,11,40,14.80
2020,04,18,11,41,14.80
2020,04,18,11,42,14.80
2020,04,18,11,43,14.90
2020,04,18,11,44,14.90
2020,04,18,11,45,15.00
2020,04,18,11,46,15.10
2020,04,18,11,47,15.10
2020,04,18,11,48,15.20
2020,04,18,11,49,15.30
2020,04,18,11,50,15.30
2020,04,18,11,51,15.30
2020,04,18,11,52,15.40
2020,04,18,11,53,15.40
2020,04,18,11,54,15.40
2020,04,18,11,55,15.50
2020,04,18,11,56,15.60
2020,04,18,11,57,15.60
2020,04,18,11,58,15.60
2020,04,18,11,59,15.70
2020,04,18,12,00,15.70
2020,04,18,12,01,15.80
2020,04,18,12,02,15.80
2020,04,18,12,03,15.90
2020,04,18,12,04,15.90
2020,04,18,12,05,16.00
2020,04,18,12,06,16.10
2020,04,18,12,07,16.10
2020,04,18,12,08,16.20
2020,04,18,12,09,16.20
2020,04,18,12,10,16.30
2020,04,18,12,11,16.40
2020,04,18,12,12,16.50
2020,04,18,12,13,16.60
2020,04,18,12,14,16.70
2020,04,18,12,15,16.80
2020,04,18,12,16,16.80
2020,04,18,12,17,16.80
2020,04,18,12,18,16.90
2020,04,18,12,19,16.90
2020,04,18,12,20,16.90
2020,04,18,12,21,16.90
2020,04,18,12,22,16.90
2020,04,18,12,23,16.90
2020,04,18,12,24,16.90
2020,04,18,12,25,16.90
2020,04,18,12,26,16.90
2020,04,18,12,27,16.90
2020,04,18,12,28,16.90
2020,04,18,12,29,17.00
2020,04,18,12,30,16.90
2020,04,18,12,31,16.90
2020,04,18,12,32,16.90
2020,04,18,12,33,16.90
2020,04,18,12,34,17.00
2020,04,18,12,35,17.10
2020,04,18,12,36,17.20
2020,04,18,12,37,17.20
2020,04,18,12,38,17.30
2020,04,18,12,39,17.30
2020,04,18,12,40,17.40
2020,04,18,12,41,17.40
2020,04,18,12,42,17.40
2020,04,18,12,43,17.40
2020,04,18,12,44,17.50
2020,04,18,12,45,17.50
2020,04,18,12,46,17.50
2020,04,18,12,47,17.50
2020,04,18,12,48,17.50
2020,04,18,12,49,17.50
2020,04,18,12,50,17.50
2020,04,18,12,51,17.60
2020,04,18,12,52,17.60
2020,04,18,12,53,17.70
2020,04,18,12,54,17.80
2020,04,18,12,55,17.90
2020,04,18,12,56,18.00
2020,04,18,12,57,18.10
2020,04,18,12,58,18.10
2020,04,18,12,59,18.20
2020,04,18,13,00,18.20
2020,04,18,13,01,18.20
2020,04,18,13,02,18.20
2020,04,18,13,03,18.30
2020,04,18,13,04,18.30
2020,04,18,13,05,18.30
2020,04,18,13,06,18.30
2020,04,18,13,07,18.30
2020,04,18,13,08,18.40
2020,04,18,13,09,18.40
2020,04,18,13,10,18.50
2020,04,18,13,11,18.50
2020,04,18,13,12,18.40
2020,04,18,13,13,18.40
2020,04,18,13,14,18.50
2020,04,18,13,15,18.50
2020,04,18,13,16,18.70
2020,04,18,13,17,18.80
2020,04,18,13,18,18.80
2020,04,18,13,19,18.90
2020,04,18,13,20,18.90
2020,04,18,13,21,18.90
2020,04,18,13,22,18.90
2020,04,18,13,23,18.80
2020,04,18,13,24,18.80
2020,04,18,13,25,18.80
2020,04,18,13,26,18.90
2020,04,18,13,27,19.00
2020,04,18,13,28,19.10
2020,04,18,13,29,19.10
2020,04,18,13,30,19.00
2020,04,18,13,31,18.90
2020,04,18,13,32,18.80
2020,04,18,13,33,18.80
2020,04,18,13,34,18.80
2020,04,18,13,35,18.80
2020,04,18,13,36,19.00
2020,04,18,13,37,19.10
2020,04,18,13,38,19.30
2020,04,18,13,39,19.30
2020,04,18,13,40,19.40
2020,04,18,13,41,19.30
2020,04,18,13,42,19.30
2020,04,18,13,43,19.40
2020,04,18,13,44,19.40
2020,04,18,13,45,19.40
2020,04,18,13,46,19.30
2020,04,18,13,47,19.30
2020,04,18,13,48,19.30
2020,04,18,13,49,19.20
2020,04,18,13,50,19.30
2020,04,18,13,51,19.30
2020,04,18,13,52,19.40
2020,04,18,13,53,19.30
2020,04,18,13,54,19.20
2020,04,18,13,55,19.10
2020,04,18,13,56,19.10
2020,04,18,13,57,19.20
2020,04,18,13,58,19.20
2020,04,18,13,59,19.20
2020,04,18,14,00,19.30
2020,04,18,14,01,19.20
2020,04,18,14,02,19.10
2020,04,18,14,03,19.20
2020,04,18,14,04,19.20
2020,04,18,14,05,19.30
2020,04,18,14,06,19.40
2020,04,18,14,07,19.40
2020,04,18,14,08,19.40
2020,04,18,14,09,19.30
2020,04,18,14,10,19.20
2020,04,18,14,11,19.20
2020,04,18,14,12,19.20
2020,04,18,14,13,19.30
2020,04,18,14,14,19.30
2020,04,18,14,15,19.30
2020,04,18,14,16,19.20
2020,04,18,14,17,19.10
2020,04,18,14,18,19.10
2020,04,18,14,19,19.10
2020,04,18,14,20,19.10
2020,04,18,14,21,19.00
2020,04,18,14,22,18.90
2020,04,18,14,23,18.80
2020,04,18,14,24,18.80
2020,04,18,14,25,18.80
2020,04,18,14,26,18.80
2020,04,18,14,27,18.80
2020,04,18,14,28,18.90
2020,04,18,14,29,19.00
2020,04,18,14,30,19.00
2020,04,18,14,31,19.00
2020,04,18,14,32,18.90
2020,04,18,14,33,18.80
2020,04,18,14,34,18.80
2020,04,18,14,35,18.70
2020,04,18,14,36,18.60
2020,04,18,14,37,18.60
2020,04,18,14,38,18.60
2020,04,18,14,39,18.70
2020,04,18,14,40,18.70
2020,04,18,14,41,18.70
2020,04,18,14,42,18.70
2020,04,18,14,43,18.80
2020,04,18,14,44,18.80
2020,04,18,14,45,18.70
2020,04,18,14,46,18.70
2020,04,18,14,47,18.70
2020,04,18,14,48,18.70
2020,04,18,14,49,18.70
2020,04,18,14,50,18.70
2020,04,18,14,51,18.70
2020,04,18,14,52,18.80
2020,04,18,14,53,18.90
2020,04,18,14,54,18.90
2020,04,18,14,55,19.00
2020,04,18,14,56,19.10
2020,04,18,14,57,19.10
2020,04,18,14,58,19.10
2020,04,18,14,59,19.00
2020,04,18,15,00,19.00
2020,04,18,15,01,19.00
2020,04,18,15,02,18.90
2020,04,18,15,03,18.80
2020,04,18,15,04,18.80
2020,04,18,15,05,18.80
2020,04,18,15,06,18.70
2020,04,18,15,07,18.70
2020,04,18,15,08,18.70
2020,04,18,15,09,18.80
2020,04,18,15,10,18.80
2020,04,18,15,11,18.90
2020,04,18,15,12,18.80
2020,04,18,15,13,18.80
2020,04,18,15,14,18.80
2020,04,18,15,15,18.80
2020,04,18,15,16,18.80
2020,04,18,15,17,18.90
2020,04,18,15,18,18.90
2020,04,18,15,19,19.00
2020,04,18,15,20,19.00
2020,04,18,15,21,19.00
2020,04,18,15,22,19.10
2020,04,18,15,23,19.20
2020,04,18,15,24,19.30
2020,04,18,15,25,19.30
2020,04,18,15,26,19.30
2020,04,18,15,27,19.40
2020,04,18,15,28,19.40
2020,04,18,15,29,19.40
2020,04,18,15,30,19.40
2020,04,18,15,31,19.40
2020,04,18,15,32,19.30
2020,04,18,15,33,19.30
2020,04,18,15,34,19.20
2020,04,18,15,35,19.20
2020,04,18,15,36,19.20
2020,04,18,15,37,19.10
2020,04,18,15,38,19.00
2020,04,18,15,39,19.00
2020,04,18,15,40,18.90
2020,04,18,15,41,18.90
2020,04,18,15,42,18.90
2020,04,18,15,43,18.80
2020,04,18,15,44,18.80
2020,04,18,15,45,18.70
2020,04,18,15,46,18.70
2020,04,18,15,47,18.60
2020,04,18,15,48,18.50
2020,04,18,15,49,18.50
2020,04,18,15,50,18.50
2020,04,18,15,51,18.50
2020,04,18,15,52,18.60
2020,04,18,15,53,18.60
2020,04,18,15,54,18.60
2020,04,18,15,55,18.70
2020,04,18,15,56,18.80
2020,04,18,15,57,18.90
2020,04,18,15,58,19.00
2020,04,18,15,59,19.00
2020,04,18,16,00,19.10
2020,04,18,16,01,19.00
2020,04,18,16,02,18.90
2020,04,18,16,03,18.90
2020,04,18,16,04,18.90
2020,04,18,16,05,18.80
2020,04,18,16,06,18.70
2020,04,18,16,07,18.60
2020,04,18,16,08,18.50
2020,04,18,16,09,18.50
2020,04,18,16,10,18.40
2020,04,18,16,11,18.40
2020,04,18,16,12,18.40
2020,04,18,16,13,18.40
2020,04,18,16,14,18.40
2020,04,18,16,15,18.40
2020,04,18,16,16,18.30
2020,04,18,16,17,18.30
2020,04,18,16,18,18.30
2020,04,18,16,19,18.30
2020,04,18,16,20,18.30
2020,04,18,16,21,18.20
2020,04,18,16,22,18.20
2020,04,18,16,23,18.10
2020,04,18,16,24,18.10
2020,04,18,16,25,18.00
2020,04,18,16,26,18.00
2020,04,18,16,27,17.90
2020,04,18,16,28,17.90
2020,04,18,16,29,17.90
2020,04,18,16,30,17.80
2020,04,18,16,31,17.80
2020,04,18,16,32,17.80
2020,04,18,16,33,17.80
2020,04,18,16,34,17.80
2020,04,18,16,35,17.80
2020,04,18,16,36,17.80
2020,04,18,16,37,17.80
2020,04,18,16,38,17.80
2020,04,18,16,39,17.80
2020,04,18,16,40,17.80
2020,04,18,16,41,17.80
2020,04,18,16,42,17.90
2020,04,18,16,43,17.90
2020,04,18,16,44,17.90
2020,04,18,16,45,18.00
2020,04,18,16,46,18.00
2020,04,18,16,47,18.00
2020,04,18,16,48,18.10
2020,04,18,16,49,18.00
2020,04,18,16,50,18.00
2020,04,18,16,51,18.00
2020,04,18,16,52,18.10
2020,04,18,16,53,18.10
2020,04,18,16,54,18.10
2020,04,18,16,55,18.10
2020,04,18,16,56,18.10
2020,04,18,16,57,18.10
2020,04,18,16,58,18.10
2020,04,18,16,59,18.20
2020,04,18,17,00,18.20
2020,04,18,17,01,18.10
2020,04,18,17,02,18.20
2020,04,18,17,03,18.20
2020,04,18,17,04,18.20
2020,04,18,17,05,18.20
2020,04,18,17,06,18.20
2020,04,18,17,07,18.10
2020,04,18,17,08,18.10
2020,04,18,17,09,18.10
2020,04,18,17,10,18.10
2020,04,18,17,11,18.10
2020,04,18,17,12,18.10
2020,04,18,17,13,18.00
2020,04,18,17,14,18.00
2020,04,18,17,15,17.90
2020,04,18,17,16,18.00
2020,04,18,17,17,18.00
2020,04,18,17,18,18.00
2020,04,18,17,19,18.00
2020,04,18,17,20,17.90
2020,04,18,17,21,17.90
2020,04,18,17,22,17.90
2020,04,18,17,23,17.90
2020,04,18,17,24,18.00
2020,04,18,17,25,17.90
2020,04,18,17,26,17.90
2020,04,18,17,27,17.90
2020,04,18,17,28,17.90
2020,04,18,17,29,17.80
2020,04,18,17,30,17.70
2020,04,18,17,31,17.60
2020,04,18,17,32,17.50
2020,04,18,17,33,17.40
2020,04,18,17,34,17.30
2020,04,18,17,35,17.30
2020,04,18,17,36,17.20
2020,04,18,17,37,17.20
2020,04,18,17,38,17.10
2020,04,18,17,39,17.10
2020,04,18,17,40,17.10
2020,04,18,17,41,17.10
2020,04,18,17,42,17.10
2020,04,18,17,43,17.10